Regional Weather Roundup
Issued by NWS Charleston, SC

Current Version | Previous Version | Text Only | Print | Product List | Glossary Off
Versions: 1 2 3 4 5 6 7 8 9 10 11 12 13 14 15 16 17 18 19 20 21 22 23 24 25 26 27 28 29 30 31 32 33 34 35 36 37 38 39 40 41 42 43 44 45 46 47 48 49 50

000
ASUS42 KCHS 210012
RWRCHS

Regional Weather Roundup
National Weather Service Charleston SC
800 PM EDT FRI APR 20 2018

NOTE: "fair" indicates few or no clouds below 12,000 feet with no
significant weather and/or obstructions to visibility.

Not all stations are quality controlled. Use data with caution,
especially dewpoint observations.

SCZ027-030-031-034>040-042>050-210100-
...Southeast South Carolina...

CITY           SKY/WX    TMP DP  RH WIND       PRES   REMARKS
N Charleston   FAIR      58  42  55 SE8       30.28R
6HR MIN TEMP:  58; 6HR MAX TEMP:  68;

Waterfront Prk   N/A     62  45  53 E8        30.12S
Mount Pleasant FAIR      55  43  62 CALM      30.28R
Johns Island   FAIR      57  45  62 E6        30.28R
Pinopolis        N/A     64  39  39 N5        30.17S
Moncks Corner  FAIR      57  39  51 S6        30.27R
Summerville    FAIR      57  37  47 CALM      30.28R
Beaufort MCAS  FAIR      60  49  66 E7        30.27R
6HR MIN TEMP:  60; 6HR MAX TEMP:  68;

Beaufort Arpt  FAIR      57  45  62 E5        30.27R
Hilton Head Is FAIR      59  46  63 VRB3      30.28S
Walterboro     FAIR      61  34  36 CALM      30.28R
Allendale      FAIR      63  36  36 CALM      30.26R

...Southern Midlands and Pee Dee...

CITY           SKY/WX    TMP DP  RH WIND       PRES   REMARKS
Georgetown     FAIR      54  39  58 E3        30.30R
Kingstree      FAIR      59  37  44 CALM      30.27S
Orangeburg     FAIR      62  34  35 CALM      30.27R
6HR MIN TEMP:  62; 6HR MAX TEMP:  69;

Barnwell       FAIR      63  34  34 CALM      30.27R
Aiken          FAIR      61  30  31 N5        30.31R
Manning        FAIR      54  34  47 CALM      30.28R
Columbia       FAIR      67  30  25 NE3       30.26R
6HR MIN TEMP:  65; 6HR MAX TEMP:  71;

Sumter         FAIR      62  30  30 CALM      30.25R
6HR MIN TEMP:  62; 6HR MAX TEMP:  69;

Florence       FAIR      63  34  33 E3        30.27S
6HR MIN TEMP:  61; 6HR MAX TEMP:  69;

Myrtle Beach   FAIR      56  42  59 SE6       30.31R
N Myrtle Beach FAIR      56  41  57 SE5       30.29R
6HR MIN TEMP:  56; 6HR MAX TEMP:  61;


$$

GAZ063-065-086>088-099>101-113>116-118-119-134>141-150-210100-
...Southeast Georgia...

CITY           SKY/WX    TMP DP  RH WIND       PRES   REMARKS
Savannah Arpt  FAIR      62  47  57 SE9       30.26R
6HR MIN TEMP:  62; 6HR MAX TEMP:  69;

Hunter AAF     FAIR      60  47  61 E10       30.24R
6HR MIN TEMP:  60; 6HR MAX TEMP:  67;

Fort Stewart   FAIR      62  44  53 E5        30.24R
6HR MIN TEMP:  62; 6HR MAX TEMP:  70;

Statesboro     FAIR      60  41  49 CALM      30.26R
Sylvania       FAIR      61  46  59 CALM      30.27R
Claxton        FAIR      63  50  61 CALM      30.25S

...CSRA, Central and far Southeast Georgia...

CITY           SKY/WX    TMP DP  RH WIND       PRES   REMARKS
Thomson        FAIR      60  38  44 CALM      30.32R
Augusta-Bush   FAIR      61  42  49 CALM      30.26R
6HR MIN TEMP:  61; 6HR MAX TEMP:  71;

Augusta-Daniel FAIR      66  29  24 N5        30.27R
Swainsboro     FAIR      63  43  48 CALM      30.26S
Vidalia        FAIR      64  45  48 E3        30.25S
Eastman        FAIR      66  27  22 E5        30.27R
Hazlehurst     FAIR      67  40  37 NE3       30.24R
Alma           FAIR      65  45  48 CALM      30.23S
6HR MIN TEMP:  65; 6HR MAX TEMP:  72; 6HR PCP: TRACE;

Waycross       CLOUDY    64  47  52 E7        30.24R
Jesup          FAIR      63  46  55 CALM      30.26R
Baxley         FAIR      63  43  48 E3        30.24R
Brunswick      CLOUDY    61  48  63 NE7       30.26S
Saint Simons   CLOUDY    61  51  70 NE12      30.25R
6HR MIN TEMP:  61; 6HR MAX TEMP:  65;


$$

SCZ027-028-034-036>038-045-046-048>050-GAZ119-141-210100-
...Lake and Supplemental Coastal Observations...

STATION/POSITION TIME  TEMP    WIND        PRES    WAVE   SWELL
                       AIR SEA DIR/SP/G            HT/PER HT/PER/DIR
                 (UTC) (F)     (DEG/KT/KT) (MB)    (FT/S) (FT/S/D)
Winyah Bay       2245   58     110/  6     1025.0
Lake Murray      2320   65     230/  2/  4 1024.0S
ACE Basin NERRS  2245   62     350/  3       N/A
Fort Pulaski     2348   61 66   80/ 11/ 13 1025.2R
Sapelo Island    2300   61      50/  9     1024.0

$$

ANZ835-935-AMZ111-154-330-350-352-354-370-450-454-472-210100-
...C-MAN and Buoy Observations...

STATION/POSITION TIME  TEMP    WIND        PRES    WAVE   SWELL
                       AIR SEA DIR/SP/G            HT/PER HT/PER/DIR
                 (UTC) (F)     (DEG/KT/KT) (MB)    (FT/S) (FT/S/D)
Buoy 41004       2350   61 67   60/ 16/ 19 1025.0R   5/ 8   3/ 80/ 8
Buoy 41008       2350   61 65   60/ 19/ 23 1023.9R   6/ 6   2/100/13
Folly Beach CMAN 0000   60      80/  9/ 11 1025.8R
Capers Nearshore 2308   60 63  100/ 10/ 14 1025.2F
Fripp Nearshore  2308   60 65   80/ 12/ 16 1024.4R


STATION/POSITION TIME  TEMP    WIND        PRES    WAVE   SWELL
                       AIR SEA DIR/SP/G            HT/PER HT/PER/DIR
                 (UTC) (F)     (DEG/KT/KT) (MB)    (FT/S) (FT/S/D)
5E St. Marys GA  2330      66                N/A     7/ 7
Frying Pan Buoy  2350   59 66   70/  8/ 10 1025.5R   3/ 9   3/ 80/ 9
Buoy 41025       0000   52 71   40/ 10/ 14 1026.9
Cape Lookout NC  2300          140/  6/  6 1025.9R
Buoy 41002       2350   63 72   30/ 16/ 19 1023.6R   7/ 8   5/ 10/ 8
Buoy 41010       2350   73 75   70/ 17/ 21 1020.0R   6/ 9   5/ 20/ 9
St Augustine FL  0000   64 67   10/ 25/ 27 1022.1R


$$




USA.gov is the U.S. government's official web portal to all federal, state and local government web resources and services.